TIME,DELAY(SENSOR),PRES,T(CTD),SAL,OXYGEN,RAWTEMP,T(OPTODE),TCPHASE,FLUOR,BETA(BETA700),BETA(BETA412),BETA(BETA440),CDOM,C(CSC),ED(ED411.90),ED(ED443.80),ED(ED489.40),ED(ED554.70),LU(LU412.20),LU(LU443.80),LU(LU489.40),LU(LU555.00),COMP,TILTX,TILTX(TILTY),CHECK
1364746569,5805,497.7200012207031000,13.9432001113891600,35.8179016113281250,179.9595031738281200,290.0440979003906000,13.9345102310180660,35.8048896789550800,89,1142,92,77,71,11272,2146961965,2147512914,2147277586,2147478016,2147084324,2146944118,2147675821,2147121618,2596,-1,8,39349
1364746708,5805,487.0000000000000000,14.2334003448486330,35.8650016784668000,180.2592926025390600,279.8752136230469000,14.2412395477294920,35.6318092346191400,89,1105,94,77,72,11272,2146956790,2147514934,2147275693,2147479515,2147085458,2146951021,2147671286,2147121865,2614,-1,8,45037
1364746870,5805,472.2300109863281000,14.5735998153686520,35.9198989868164060,182.9987945556640600,268.6477050781250000,14.5797595977783200,35.2801017761230500,86,1101,94,77,71,11272,2146960356,2147512182,2147278482,2147477650,2147083922,2146948406,2147667200,2147123529,2260,0,8,27272
1364746973,5805,460.7999877929687500,14.7705001831054690,35.9510002136230500,184.0440063476562500,262.4429931640625000,14.7667903900146480,35.1182899475097660,88,1100,94,77,70,11271,2146959798,2147511506,2147275611,2147474285,2147085120,2146946715,2147667565,2147125622,3482,-1,8,33144
1364747076,5806,449.2200012207031000,14.9702997207641600,35.9849014282226560,185.0959014892578000,255.7877044677734400,14.9673700332641600,34.9506416320800800,88,1088,93,78,71,11267,2146960265,2147514806,2147275300,2147469924,2147086418,2146950125,2147667300,2147121426,2689,-1,8,3844
1364747195,5808,437.0299987792969000,15.2480001449584960,36.0312004089355500,186.5097045898437500,246.3578033447265600,15.2515201568603520,34.7201004028320300,89,1122,94,77,71,11269,2146960877,2147512475,2147274157,2147472347,2147082432,2146949732,2147665737,2147123620,2490,-1,8,44347
1364747322,5808,426.0100097656250000,15.3992004394531250,36.0577011108398440,188.5525054931640600,241.6660003662109400,15.3928899765014650,34.5199394226074200,88,1066,94,77,70,11270,2146958244,2147513426,2147274944,2147471652,2147082605,2146947209,2147665572,2147117869,1740,-2,8,7850
1364747451,5806,415.4500122070312500,15.4977998733520500,36.0738983154296900,189.1598968505859400,238.1824951171875000,15.4978399276733400,34.4298591613769500,88,1079,94,77,69,11266,2146960457,2147515538,2147270994,2147468809,2147083748,2146955968,2147665307,2147121590,368,-1,8,19577
1364747590,5803,405.1099853515625000,15.7800998687744140,36.1176986694335940,190.0821990966797000,228.9302978515625000,15.7765998840332030,34.2369499206543000,88,1111,93,78,70,11268,2146959524,2147517293,2147269604,2147465801,2147083840,2146952457,2147666313,2147123254,3146,-1,8,16215
1364747774,5804,391.7500000000000000,16.0520000457763670,36.1678009033203100,193.0229949951172000,219.9400939941406200,16.0474605560302730,33.9230308532714840,86,1048,93,77,69,11270,2146958637,2147516187,2147269074,2147462985,2147083629,2146955126,2147664009,2147128457,1411,-1,8,7197
1364747898,5807,380.5899963378906000,16.2313995361328120,36.2004013061523440,195.8883056640625000,214.1203002929687500,16.2228107452392580,33.6644592285156250,86,998,94,77,69,11272,2146961097,2147516260,2147271286,2147463497,2147082944,2146950390,2147660278,2147116900,159,-1,8,62205
1364748013,5806,369.3200073242187500,16.3586006164550780,36.2154998779296900,196.2666015625000000,209.6905975341797000,16.3562908172607420,33.5778007507324200,88,1098,92,76,69,11271,2146958921,2147513590,2147271789,2147464566,2147084900,2146953334,2147659474,2147127204,2311,-1,8,49087
1364748130,5809,357.1099853515625000,16.5667991638183600,36.2503013610839840,197.0966033935547000,202.2729949951172000,16.5798301696777340,33.4220695495605500,87,1081,93,78,69,11261,2146959579,2147513910,2147270601,2147463588,2147084141,2146955812,2147657014,2147122998,1776,-1,8,43416
1364748233,5803,345.8399963378906000,16.7782001495361330,36.2882003784179700,198.9866943359375000,195.2593994140625000,16.7912292480468750,33.2094993591308600,89,1043,93,78,69,11269,2146961856,2147514240,2147269824,2147462235,2147085138,2146953005,2147658825,2147123785,1921,-1,8,40150
1364748336,5804,334.3599853515625000,16.8747997283935550,36.3017005920410160,201.6215057373047000,192.4057006835937500,16.8772602081298830,33.0139808654785160,87,1065,93,77,68,11270,2146960941,2147515154,2147271360,2147459648,2147085266,2146956242,2147655881,2147130112,1084,-1,8,50630
1364748456,5806,322.9500122070312500,17.1854000091552730,36.3516006469726560,204.4210052490234400,182.3294067382812500,17.1810798645019530,32.7105712890625000,88,1068,93,78,69,11268,2146960685,2147513024,2147270445,2147461741,2147087670,2146950509,2147655076,2147124827,3061,-1,8,55863
1364748607,5803,311.4800109863281000,17.3435993194580080,36.3730010986328100,206.5843963623047000,177.2194061279297000,17.3351993560791000,32.5162887573242200,90,1098,93,77,68,11266,2146961892,2147514157,2147267565,2147460013,2147084973,2146952429,2147654866,2147125202,2565,-1,8,34099
1364748765,5806,299.6300048828125000,17.4316005706787100,36.3765983581543000,207.5057983398437500,173.6383972167968800,17.4432296752929700,32.4147605895996100,84,1000,94,77,68,11265,2146958720,2147515474,2147267053,2147456521,2147080822,2146954733,2147654363,2147123392,906,-1,8,2660
1364748904,5807,288.2699890136719000,17.5946998596191400,36.3796997070312500,208.0207977294922000,169.0390014648437500,17.5820102691650400,32.3221092224121100,85,1132,93,77,69,11261,2146959021,2147512246,2147269366,2147455360,2147077412,2146956397,2147651721,2147127350,901,-1,8,10637
1364749040,5807,277.6400146484375000,17.8649997711181640,36.3979988098144500,208.8515930175781200,159.9010009765625000,17.8578205108642580,32.1494598388671900,86,1068,94,78,67,11262,2146957805,2147511478,2147268781,2147455789,2147082038,2146956141,2147651318,2147127579,971,-1,8,8211
1364749168,5806,266.1300048828125000,18.1319007873535160,36.4481010437011700,210.3522033691406200,150.5381011962890600,18.1405792236328120,31.9378700256347660,87,1064,93,78,68,11262,2146956982,2147514029,2147267017,2147454400,2147080411,2146956900,2147650752,2147125878,654,-1,7,9178
1364749283,5806,255.4900054931640600,18.4601993560791000,36.4975013732910160,213.2756958007812500,140.0565032958984400,18.4573402404785160,31.6359596252441400,86,1059,93,79,68,11254,2146957449,2147513188,2147268187,2147453970,2147077376,2146957275,2147649609,2147125339,3162,-1,8,46862
1364749400,5804,243.8399963378906200,18.7129993438720700,36.5093002319335940,220.7599029541015600,131.9127044677734400,18.7036094665527340,31.1314506530761720,88,1115,93,78,68,11253,2146958144,2147513737,2147266020,2147449782,2147080201,2146959277,2147646500,2147127259,2226,-1,8,48187
1364749503,5806,232.6699981689453000,18.9276008605957030,36.5318984985351560,233.8323059082031200,124.3398971557617200,18.9327697753906250,30.3791694641113280,87,1035,96,79,64,11234,2146960502,2147515035,2147264073,2147447853,2147085549,2146964589,2147648228,2147126317,1793,-1,8,63555
1364749606,5805,220.9799957275390600,19.0284004211425780,36.5527992248535160,250.1591033935547000,121.3612976074218800,19.0229396820068360,29.5867195129394530,88,1025,97,81,63,11212,2146957440,2147515492,2147267026,2147447561,2147081499,2146962788,2147652123,2147128777,1036,-1,8,38381
1364749725,5803,208.3699951171875000,19.1058006286621100,36.5696983337402340,256.6878967285156000,118.8533020019531200,19.0988807678222660,29.2694892883300780,89,1071,97,82,63,11200,2146959131,2147514770,2147264996,2147447241,2147086153,2146965184,2147650404,2147128466,3147,-1,8,41028
1364749840,5804,197.5899963378906200,19.1130008697509770,36.5727996826171900,258.5289916992187500,118.4726028442382800,19.1104106903076170,29.1859207153320300,88,1103,97,83,62,11199,2146957421,2147511616,2147264182,2147443218,2147085659,2146967625,2147659876,2147127780,2073,-1,8,9490
1364749895,5808,192.4799957275390600,19.1179008483886720,36.5736999511718750,259.3836975097656000,118.3391036987304700,19.1144599914550780,29.1477794647216800,89,1076,100,82,63,11189,2146961060,2147510171,2147262921,2147447003,2147083282,2146971126,2147660909,2147128091,1817,-1,8,51294
1364749950,5805,187.4499969482422000,19.1219997406005860,36.5736999511718750,259.7984008789062500,118.2457962036132800,19.1172790527343750,29.1289405822753900,89,1087,98,81,62,11190,2146957266,2147513810,2147262299,2147445430,2147084873,2146970953,2147664576,2147127734,1497,-2,8,41941
1364750029,5807,180.8300018310547000,19.1243000030517580,36.5754013061523440,260.2668151855469000,118.1492996215820300,19.1202106475830080,29.1078605651855470,89,1089,99,82,63,11183,2146957741,2147511049,2147264420,2147446061,2147084306,2146971940,2147671350,2147128704,940,-2,8,30716
1364750084,5806,176.7400054931640600,19.1287002563476560,36.5763015747070300,260.6087036132812500,118.0108032226562500,19.1243991851806640,29.0918598175048830,90,1126,97,81,62,11182,2146955035,2147516726,2147265563,2147442514,2147088813,2146978166,2147676982,2147129984,621,-1,8,57370
1364750139,5805,172.7700042724609400,19.1326007843017580,36.5769996643066400,260.8211059570312500,117.9045028686523400,19.1276206970214840,29.0814208984375000,88,1089,100,83,63,11177,2146957577,2147512219,2147263186,2147443492,2147087689,2146976621,2147676845,2147126902,285,-2,8,36296
1364750194,5807,168.8800048828125000,19.1319007873535160,36.5780982971191400,260.8977966308594000,117.8834991455078100,19.1282501220703120,29.0780296325683600,89,1096,99,81,61,11172,2146954093,2147514971,2147263597,2147444672,2147090541,2146976585,2147678976,2147127872,3539,-1,8,43343
1364750249,5805,165.1000061035156200,19.1326007843017580,36.5773010253906250,260.8923950195312500,117.8889007568359400,19.1280899047851560,29.0782794952392580,90,1114,98,82,62,11167,2146960338,2147514441,2147262802,2147446070,2147087122,2146982317,2147679314,2147128530,3372,-1,8,53834
1364750339,5806,159.6499938964843800,19.1427993774414060,36.5811996459960940,261.2752075195312500,117.5140991210937500,19.1394405364990230,29.0571994781494140,91,1151,99,85,62,11163,2146960210,2147512749,2147264557,2147444781,2147090185,2146973714,2147674989,2147128603,2708,-2,8,23814
1364750418,5805,155.7899932861328000,19.1483001708984380,36.5828018188476560,261.6752014160156000,117.3657989501953100,19.1439304351806640,29.0385894775390620,92,1126,100,83,62,11148,2146957933,2147509376,2147264027,2147444589,2147088594,2146979785,2147684187,2147129664,2337,-2,8,26616
1364750509,5808,151.5200042724609400,19.1502990722656250,36.5840988159179700,261.8745117187500000,117.2690963745117200,19.1468696594238280,29.0290794372558600,91,1142,100,83,62,11138,2146958189,2147513700,2147267419,2147442998,2147092297,2146989760,2147699062,2147131044,1756,-2,8,34083
1364750600,5804,147.3600006103515600,19.1530990600585940,36.5830993652343750,262.1864929199219000,117.2024993896484400,19.1488800048828120,29.0150508880615230,92,1145,101,82,62,11127,2146957677,2147513426,2147265718,2147445037,2147092644,2146993078,2147711149,2147127716,1253,-2,9,15245
1364750681,5803,143.5800018310547000,19.1548995971679700,36.5820999145507800,262.5014953613281000,117.1679992675781200,19.1499290466308600,29.0014801025390620,92,1145,101,85,62,11119,2146957321,2147512493,2147266605,2147443867,2147093147,2146997878,2147712502,2147128228,1288,-2,9,18420
1364750760,5805,139.7500000000000000,19.1539993286132800,36.5833015441894500,262.6365966796875000,117.1495971679687500,19.1504898071289060,28.9955596923828120,92,1153,100,83,63,11113,2146956306,2147514413,2147265764,2147441371,2147092416,2146993033,2147713499,2147130678,1205,-2,9,49999
1364750851,5804,135.3399963378906200,19.1567001342773440,36.5826988220214840,262.7095031738281000,117.0998001098632800,19.1519908905029300,28.9920101165771500,94,1195,99,85,61,11117,2146957577,2147512548,2147266861,2147440585,2147101302,2147016630,2147755382,2147133275,625,-2,8,580
1364750930,5805,131.3899993896484400,19.1567001342773440,36.5833015441894500,262.5842895507812500,117.0831985473632800,19.1525001525878900,28.9970397949218750,92,1147,100,83,61,11118,2146959241,2147516306,2147267721,2147441636,2147112329,2147043830,2147811904,2147133988,480,-1,8,14624
1364751011,5808,127.2799987792968800,19.1562995910644530,36.5833015441894500,262.4201049804687500,117.0783996582031200,19.1526393890380860,29.0037307739257800,91,1137,100,83,62,11143,2146959606,2147521216,2147271396,2147444178,2147127561,2147079497,2147870893,2147139245,421,-2,8,5746
1364751090,5806,123.1399993896484400,19.1576004028320300,36.5830993652343750,262.4093933105469000,117.0781021118164000,19.1526508331298830,29.0041198730468750,92,1164,100,84,61,11142,2146959844,2147518290,2147271689,2147441819,2147129682,2147085010,2147881810,2147140745,259,-1,8,45338
1364751157,5804,119.4300003051757800,19.1548004150390620,36.5816993713378900,262.2005920410156000,117.1600036621093800,19.1501693725585940,29.0140399932861330,90,1150,101,83,62,11157,2146958336,2147520539,2147270948,2147441600,2147129938,2147077348,2147859748,2147139145,432,-1,8,5652
1364751236,5807,114.8700027465820300,19.1543006896972660,36.5828018188476560,261.9566040039062500,117.1428985595703100,19.1506900787353500,29.0238704681396500,91,1154,100,83,61,11159,2146960987,2147516324,2147272182,2147444745,2147127524,2147065673,2147842560,2147138788,116,-2,9,17064
1364751293,5805,111.5199966430664000,19.1536006927490230,36.5824012756347660,262.2308959960937500,117.1625976562500000,19.1500892639160160,29.0125408172607420,91,1142,99,82,63,11153,2146957449,2147516379,2147269028,2147443136,2147123145,2147063030,2147824100,2147137828,3411,-2,9,56514
1364751348,5806,108.2799987792968800,19.1557006835937500,36.5817985534668000,262.0797119140625000,117.1134033203125000,19.1515808105468750,29.0182991027832030,90,1144,100,83,62,11153,2146954834,2147516187,2147266779,2147444818,2147120694,2147050633,2147805284,2147138267,3162,-2,8,6304
1364751415,5804,104.3000030517578100,19.1592998504638670,36.5833015441894500,262.5520935058594000,116.9999008178711000,19.1550197601318360,28.9972400665283200,91,1149,99,83,61,11133,2146957878,2147514989,2147268141,2147443812,2147125028,2147053942,2147809883,2147138093,2810,-2,9,44051
1364751482,5803,100.2099990844726600,19.1602001190185550,36.5834999084472660,262.9059143066406000,116.9652023315429700,19.1560707092285160,28.9818706512451170,90,1143,100,85,61,11128,2146959488,2147515547,2147268050,2147444004,2147136822,2147072521,2147833609,2147141312,2507,-2,9,12993
1364751537,5804,96.7799987792968800,19.1592006683349600,36.5839996337890600,263.2755126953125000,116.9703979492187500,19.1559104919433600,28.9666404724121100,92,1187,101,83,63,11110,2146960713,2147515876,2147273645,2147445467,2147149595,2147098587,2147876452,2147140790,2345,-2,9,55365
1364751616,5805,92.1699981689453100,19.1662006378173830,36.5844001770019500,263.5628051757812500,116.7947006225586000,19.1612300872802730,28.9524497985839840,92,1173,100,83,62,11102,2146959872,2147518345,2147278692,2147444626,2147179840,2147155456,2147967232,2147149869,2386,-2,9,39731
1364751671,5807,89.5199966430664000,19.1695003509521500,36.5830001831054700,263.8146972656250000,116.6728973388671900,19.1649208068847660,28.9404201507568360,93,1158,99,83,63,11099,2146963584,2147523757,2147280365,2147445248,2147215533,2147225929,2148067392,2147160329,2489,-2,9,62890
1364751726,5805,86.8499984741211000,19.1714992523193360,36.5824012756347660,263.7633972167969000,116.5959014892578100,19.1672592163085940,28.9415092468261720,93,1163,101,83,61,11100,2146964105,2147525568,2147287433,2147448356,2147274980,2147331218,2148242404,2147175908,2612,-2,9,47421
1364751781,5807,84.1699981689453100,19.1723003387451170,36.5825004577636700,263.7401123046875000,116.5462036132812500,19.1687602996826170,28.9418601989746100,94,1161,102,83,61,11106,2146969408,2147536192,2147297837,2147450148,2147369526,2147513526,2148517193,2147202477,2611,-2,8,33758
1364751836,5807,81.5100021362304700,19.1753997802734380,36.5825004577636700,263.9486083984375000,116.4689025878906200,19.1711006164550780,28.9321708679199220,92,1157,100,84,62,11105,2146971748,2147539602,2147310272,2147448082,2147501037,2147730066,2148862125,2147236516,2501,-1,9,55455
1364751891,5805,78.8099975585937500,19.1739006042480470,36.5836982727050800,263.9624938964844000,116.4692993164062500,19.1710891723632800,28.9315299987792970,93,1169,101,84,61,11100,2146979328,2147551350,2147327158,2147448356,2147656850,2148006811,2149279835,2147278811,2353,-2,9,38515
1364751948,5805,76.0400009155273400,19.1737995147705080,36.5834999084472660,264.0427856445312500,116.4356002807617200,19.1721096038818360,28.9278907775878900,92,1155,101,83,62,11100,2146986212,2147558500,2147346788,2147450322,2147844854,2148318683,2149735552,2147325522,2298,-2,9,2298
1364752003,5805,73.4000015258789000,19.1776008605957030,36.5836982727050800,264.0838012695312500,116.3756027221679700,19.1739292144775400,28.9254207611084000,94,1159,100,83,62,11104,2146989833,2147565440,2147361289,2147451035,2147999908,2148562102,2150066614,2147369737,2147,-2,9,40860
1364752058,5807,70.7399978637695300,19.1781997680664060,36.5835990905761700,264.2137145996094000,116.3180999755859400,19.1756706237792970,28.9193000793457030,93,1168,101,84,62,11095,2147000896,2147577956,2147373723,2147456182,2148150637,2148787803,2150354962,2147411922,1766,-1,8,54746
1364752113,5806,67.9899978637695300,19.1793003082275400,36.5844001770019500,264.2146911621094000,116.2742996215820300,19.1770000457763670,28.9186706542968750,92,1164,101,84,62,11096,2147010432,2147589622,2147395693,2147456960,2148389394,2149147227,2150848996,2147482029,1602,-1,9,18563
1364752168,5806,65.2799987792968800,19.1807994842529300,36.5834999084472660,264.4404907226562500,116.2416992187500000,19.1779804229736330,28.9087696075439450,93,1159,104,85,62,11102,2147026532,2147611785,2147434953,2147460086,2148809590,2149785993,2151732598,2147604480,1678,-1,9,54772
1364752223,5807,62.7500000000000000,19.1802005767822270,36.5844001770019500,264.5087890625000000,116.2405014038086000,19.1780204772949220,28.9060707092285160,94,1161,101,84,60,11085,2147042532,2147630244,2147471990,2147466093,2149286336,2150497673,2152678427,2147746980,1718,-2,9,16208
1364752280,5805,60.2400016784668000,19.1868000030517580,36.5849990844726560,264.5794067382812500,116.0714035034179700,19.1831493377685550,28.9008998870849600,93,1162,101,85,61,11096,2147056649,2147654454,2147510326,2147472429,2149762349,2151180169,2153568292,2147891968,1709,-1,9,46284
1364752335,5803,58.1199989318847660,19.2481002807617200,36.5950012207031250,264.7879028320312500,114.3639984130859400,19.2348709106445300,28.8705101013183600,96,1199,102,85,61,11075,2147074450,2147673499,2147541961,2147479360,2150133129,2151704731,2154261750,2148013083,1596,-2,8,36393
1364752390,5804,56.2400016784668000,19.2479991912841800,36.5964012145996100,265.7724914550781000,114.0664978027343800,19.2438907623291000,28.8261604309082030,96,1164,101,86,63,11064,2147088237,2147696585,2147575945,2147485275,2150614116,2152365942,2155103606,2148180397,1525,-2,9,54273
1364752445,5808,54.5900001525878900,19.2576007843017580,36.6006011962890600,266.2077941894531000,113.3259963989257800,19.2663192749023440,28.7987709045410160,95,1197,103,86,62,11061,2147103954,2147717467,2147604736,2147489938,2151008448,2152915300,2155820626,2148326336,1767,-1,8,27765
1364752587,5807,51.9399986267089840,19.3113002777099600,36.6099014282226560,267.5470886230469000,112.0991973876953100,19.3034992218017580,28.7282505035400400,96,1190,105,86,62,11014,2147081179,2147674157,2147533897,2147481691,2150318966,2151729590,2154090240,2148118125,1812,-2,8,6082
1364752640,5800,51.0299987792968750,19.3099002838134770,36.6100997924804700,267.8591003417969000,111.9740982055664000,19.3072891235351560,28.7139492034912100,97,1168,103,87,61,11011,2147075739,2147669714,2147524224,2147482267,2150171136,2151472457,2153719378,2148080649,2035,-2,9,15026
1364752685,5803,49.4099998474121100,19.3139991760253900,36.6108016967773440,267.8020935058594000,111.9170989990234400,19.3090190887451170,28.7155399322509770,97,1158,106,87,62,10998,2147089462,2147684361,2147547145,2147485805,2150495478,2151882395,2154217481,2148209627,2572,-1,8,49497
1364752730,5807,47.4300003051757800,19.3089008331298830,36.6105003356933600,267.7143859863281000,111.9039993286132800,19.3094100952148440,28.7189598083496100,97,1182,104,89,60,11006,2147120676,2147720768,2147602404,2147499382,2151237824,2152852470,2155439579,2148489362,2938,-2,9,40258
1364752763,5804,45.7500000000000000,19.3118000030517580,36.6101989746093750,267.4762878417969000,111.9047012329101600,19.3093891143798830,28.7287197113037100,97,1156,105,86,62,11007,2147151890,2147760493,2147659821,2147512420,2152088438,2153952210,2156792594,2148822610,3084,-1,9,10266
1364752808,5802,43.5800018310546900,19.3211002349853500,36.6111984252929700,267.8200988769531000,111.6779022216796900,19.3162593841552730,28.7118892669677730,98,1186,105,86,61,11014,2147210441,2147821723,2147758518,2147536603,2153475062,2155771693,2159022573,2149356388,3510,-1,8,29584
1364752853,5806,41.6199989318847660,19.3194999694824220,36.6100997924804700,267.5870971679687500,111.6975021362304700,19.3156700134277340,28.7214908599853500,99,1201,106,87,62,11013,2147259620,2147878820,2147843712,2147562285,2154748214,2157393654,2160964059,2149861330,179,-3,8,23718
1364752898,5804,39.4599990844726560,19.3190002441406250,36.6105995178222660,268.0444030761719000,111.6028976440429700,19.3185405731201170,28.7016792297363280,98,1131,109,86,62,11013,2147293897,2147920210,2147895314,2147575780,2155717440,2158511076,2162131172,2150262692,2820,-2,9,48032
1364752945,5805,37.4599990844726560,19.3218994140625000,36.6106986999511700,268.1492919921875000,111.5266036987304700,19.3208503723144530,28.6964797973632800,100,1188,105,88,62,11012,2147320548,2147945654,2147923510,2147595346,2156257956,2159026121,2162540982,2150492800,3316,-2,8,26899
1364752990,5803,35.4900016784668000,19.3227996826171880,36.6108016967773440,268.2983093261719000,111.4960021972656200,19.3217792510986330,28.6900806427001950,99,1201,106,87,61,11007,2147345910,2147966363,2147947346,2147601206,2156827547,2159592923,2163057563,2150739721,896,-1,8,64971
1364753035,5802,33.5000000000000000,19.3239002227783200,36.6087989807128900,268.5284118652344000,111.5447998046875000,19.3202991485595700,28.6814098358154300,99,1180,104,87,61,11004,2147374555,2147997641,2147990582,2147625078,2157581376,2160394569,2163809837,2151068406,773,-2,8,36161
1364753080,5807,31.6800003051757800,19.3202991485595700,36.6067008972168000,268.7395935058594000,111.5251998901367200,19.3208904266357420,28.6724205017089840,98,1188,105,87,61,10985,2147419218,2148046034,2148049334,2147652516,2158765650,2161688557,2165116827,2151577179,198,-2,8,1024
1364753149,5809,29.5900001525878900,19.3162994384765620,36.6058998107910160,269.1311035156250000,111.6272964477539000,19.3177890777587900,28.6578292846679700,99,1155,104,88,60,10982,2147503195,2148131968,2148162596,2147700489,2160969718,2164189860,2167752064,2152534482,89,-2,8,59140
1364753194,5804,27.5000000000000000,19.3208007812500000,36.6067008972168000,270.7492980957031000,111.4049987792968800,19.3245296478271500,28.5898094177246100,99,1143,105,87,61,10971,2147596269,2148225645,2148258578,2147742445,2163353929,2166752356,2170267913,2153598528,2783,-1,9,10896
1364753227,5805,25.7099990844726560,19.3260993957519530,36.6076011657714840,271.3800048828125000,111.3272018432617200,19.3268909454345700,28.5634498596191400,100,1112,106,87,60,10982,2147664521,2148291181,2148340781,2147781056,2165356653,2168857755,2172328329,2154530368,2463,-1,8,25953
